Regional Weather Roundup
Issued by NWS

Home | Current Version | Previous Version | Graphics & Text | Print | Product List | Glossary Off
Versions: 1 2 3 4 5 6 7 8 9 10 11 12 13 14 15 16 17 18 19 20 21 22 23 24 25 26 27 28 29 30 31 32 33 34 35 36 37 38 39 40 41 42 43 44 45 46 47 48 49 50

000
ASUS43 KMPX 231110
RWRMN
WEATHER ROUNDUP FOR MINNESOTA
NATIONAL WEATHER SERVICE TWIN CITIES/CHANHASSEN MN
500 AM CST SUN NOV 23 2014


NOTE: "FAIR" INDICATES FEW OR NO CLOUDS BELOW 12,000 FEET WITH NO
SIGNIFICANT WEATHER AND/OR OBSTRUCTIONS TO VISIBILITY. N/A MEANS
CURRENT SKY AND/OR WEATHER CONDITIONS ARE NOT AVAILABLE.

MNZ060>063-068>070-231200-
   Twin Cities Metro

CITY           SKY/WX    TMP DP  RH WIND       PRES   REMARKS
TWIN CITIES    CLOUDY    50  48  93 S5        29.44S
ST PAUL        CLOUDY    45  44  97 SE7       29.45S FOG
CRYSTAL        CLOUDY    48  46  93 SE6       29.42F FOG
LAKEVILLE      CLOUDY    50  48  93 S5        29.45R
EDEN PRAIRIE   CLOUDY    48  47  96 S8        29.41F
SOUTH ST PAUL  CLOUDY    50  48  93 S5        29.45S
LAKE ELMO      FOG       45  45 100 S7        29.46R VSB 3/4
$$
MNZ001>005-007-008-013>017-022>024-027-028-231200-
   Northwest Minnesota

CITY           SKY/WX    TMP DP  RH WIND       PRES   REMARKS
BEMIDJI        SNOW      32  32 100 S3        29.37F VSB 1/2
HALLOCK        CLOUDY    34  32  93 S9        29.34S FOG     WCI  26
ROSEAU         CLOUDY    34  30  86 S7        29.36S FOG     WCI  28
WARROAD        CLOUDY    34  30  86 SE7       29.37S FOG     WCI  28
THIEF RVR FALL CLOUDY    34  32  93 SW9       29.37S WCI  26
CROOKSTON      CLOUDY    34  32  93 S10       29.38R FOG     WCI  26
FOSSTON        CLOUDY    32  30  93 S9        29.38R FOG     WCI  24
DETROIT LAKES    N/A     34  34 100 CALM      29.39S FOG
MOORHEAD       CLOUDY    32  32 100 S3        29.40S FOG
PARK RAPIDS    CLOUDY    33  33 100 SW6       29.37S FOG     WCI  28
MAHNOMEN       PTSUNNY   33  32  96 SW8       29.38S FOG     WCI  26
$$
MNZ006-009>011-018-025>026-231200-
   North Central Minnesota

CITY           SKY/WX    TMP DP  RH WIND       PRES   REMARKS
BAUDETTE       CLOUDY    33  32  96 S5        29.38R FOG     WCI  29
FLAG ISLAND    CLOUDY    32  30  93 S13       29.37R FOG     WCI  22
INTL FALLS     FOG       32  31  96 SE3       29.40F VSB 3/4
WASKISH        CLOUDY    34  32  93 CALM      29.38S FOG
BIG FORK       LGT SNOW  34  32  93 CALM      29.40R VSB 3/4
LONGVILLE      FOG       34  34 100 CALM      29.38R VSB 1/4
GRAND RAPIDS   CLOUDY    36  32  87 CALM      29.38S VSB 1/4
CRANE LAKE     CLOUDY    32  30  93 CALM      29.43S FOG
ORR            CLOUDY    34  30  86 CALM      29.38S FOG
COOK           CLOUDY    34  34 100 CALM      29.40S FOG
WALKER         FOG       32  32  99 CALM      29.37F VSB 1/4
$$
MNZ012-019>021-037-231200-
   Northeast Minnesota

CITY           SKY/WX    TMP DP  RH WIND       PRES   REMARKS
DULUTH         DRZL/FOG  35  33  92 E6        29.40F VSB 1/4 WCI  30
ELY            CLOUDY    34  34 100 SE5       29.40F FOG     WCI  30
HIBBING        FOG       35  33  92 SE3       29.38F VSB 1/2
EVELETH        CLOUDY    36  36 100 SE3       29.40F FOG
DULUTH HARBOR  CLOUDY    37  36  93 NE9       29.44F FOG
TWO HARBORS    DRIZZLE   37  34  87 NE5       29.41F
SILVER BAY     DRZL/FOG  37  36  93 N5        29.43S VSB 1
GRAND MARAIS     N/A     37  36  96 NE8       29.49F
G MARAIS ARPRT CLOUDY    30  28  93 E3        29.46S VSB 3/4
$$
MNZ029>031-032-039>041-046>048-054>057-064-231200-
   West Central Minnesota

CITY           SKY/WX    TMP DP  RH WIND       PRES   REMARKS
FERGUS FALLS   CLOUDY    34  32  93 W5        29.42S WCI  30
WHEATON        CLOUDY    32  30  93 CALM      29.40F
MORRIS           N/A     37  32  81 N6        29.38S
ALEXANDRIA     CLOUDY    35  32  88 W6        29.40R WCI  30
ELBOW LAKE       N/A     34  32  92 NW5       29.39F WCI  30
WADENA         CLOUDY    34  34 100 SW3       29.38S FOG
GLENWOOD       CLOUDY    37  32  81 W8        29.38F
APPLETON       CLOUDY    36  32  87 CALM      29.38F
BENSON         CLOUDY    36  32  87 CALM      29.39R
ORTONVILLE     CLOUDY    37  30  75 NW13      29.38F
MADISON        CLOUDY    39  34  81 CALM      29.38S
WILLMAR        MOCLDY    37  34  87 CALM      29.42R
$$
MNZ033>034-036-042>043-049>051-058-059-231200-
   Central Minnesota

CITY           SKY/WX    TMP DP  RH WIND       PRES   REMARKS
ST CLOUD       CLOUDY    37  36  96 S6        29.41S FOG
SAUK CENTRE    CLOUDY    34  33  95 NW5       29.39S WCI  30
PAYNESVILLE    CLOUDY    34  32  93 CALM      29.39R
AITKIN         HAZE      39  34  81 S3        29.38R VSB 1/4
PINE RIVER     FOG       34  34 100 CALM      29.43R VSB<1/4
BRAINERD       FOG       34  34 100 SW7       29.40R VSB 1   WCI  28
STAPLES        FOG       34  34 100 CALM      29.39R VSB 1/2
LONG PRAIRIE   CLOUDY    34  32  93 W5        29.39S WCI  30
LITTLE FALLS     N/A     34  34 100 CALM      29.40S FOG
LITCHFIELD     CLOUDY    39  39 100 CALM      29.41S FOG
BUFFALO        CLOUDY    42  41  95 S3        29.43R FOG
MAPLE LAKE     FOG       41  41  99 S3        29.42R VSB 1/4
$$
MNZ037-044-045-052-053-231200-
   East Central Minnesota

CITY           SKY/WX    TMP DP  RH WIND       PRES   REMARKS
PRINCETON      CLOUDY    43  41  93 S5        29.41S FOG
MORA           LGT RAIN  36  36 100 S6        29.43R VSB 1/4
CAMBRIDGE      HAZE      45  37  76 SE5       29.40F VSB 1/4
RUSH CITY      FOG       40  39  97 S6        29.42F VSB 3/4
MOOSE LAKE     FOG       39  37  93 CALM      29.38F VSB 1/2
HINCKLEY       FOG       41  41 100 S7        29.41F VSB 1/4
CLOQUET        FOG       36  34  93 SE3       29.39F VSB<1/4
MCGREGOR       CLOUDY    36  36 100 S3        29.39S VSB 1/4
$$
MNZ071>073-080-081-089-090-097-098-231200-
   Southwest Minnesota

CITY           SKY/WX    TMP DP  RH WIND       PRES   REMARKS
MONTEVIDEO     CLOUDY    39  36  87 SW5       29.41R
GRANITE FALLS  CLOUDY    36  35  94 S6        29.43R
CANBY          CLOUDY    38  34  84 SE3       29.40S
MARSHALL       CLOUDY    39  36  87 CALM      29.42R
REDWOOD FALLS  CLOUDY    40  39  97 W3        29.42R FOG
OLIVIA         MOCLDY    39  37  93 S3        29.41R FOG
PIPESTONE      CLOUDY    39  37  93 CALM      29.42R FOG
WINDOM         CLOUDY    48  46  93 SW8       29.43R FOG
WORTHINGTON    CLOUDY    48  48 100 SW13      29.44R
JACKSON        CLOUDY    50  46  87 SW9       29.44R FOG
TRACY          CLOUDY    45  43  95 SW17      29.42R FOG
SLAYTON        FOG       44  44 100 S13       29.43R VSB 1/2
$$
MNZ065>067-074>077-082>085-091>093-231200-
   South Central Minnesota

CITY           SKY/WX    TMP DP  RH WIND       PRES   REMARKS
MANKATO        CLOUDY    52  46  82 S12       29.44S
NEW ULM        MOCLDY    46  46 100 S6        29.41S FOG
ST JAMES       CLOUDY    50  48  93 S8        29.42F FOG
FAIRMONT       CLOUDY    50  46  87 S15       29.43F
GLENCOE          N/A     47  46  99 S6        29.41S FOG
FARIBAULT      CLOUDY    52  48  87 S5        29.46F
OWATONNA       CLOUDY    52  48  87 S12G17    29.47R
WASECA         CLOUDY    50  46  87 S13       29.47S
ALBERT LEA     CLOUDY    50  50 100 S12       29.47F FOG
$$
MNZ078>079-086>088-094>096-231200-
   Southeast Minnesota

CITY           SKY/WX    TMP DP  RH WIND       PRES   REMARKS
ROCHESTER      CLOUDY    48  47  96 S15       29.51F FOG
RED WING         N/A     52  48  87 S7        29.47S
STANTON        CLOUDY    51  47  88 S9        29.44F
DODGE CENTER   FOG       48  46  93 S13       29.48F VSB 3/4
WINONA         CLOUDY    52  48  87 S5        29.53F
AUSTIN         CLOUDY    48  46  93 S10       29.49F FOG
PRESTON        CLOUDY    47  46  95 S13G18    29.53F FOG
$$
ABBREVIATIONS USED IN REMARKS
   TC - TEMPERATURES IN CELSIUS
  WCI - WIND CHILL INDEX
   HX - HEAT INDEX
  VSB - VISIBILITY
$$



USA.gov is the U.S. government's official web portal to all federal, state and local government web resources and services.